Change the Weather History Date:

Tuesday, February 28, 2012

  Actual Average Record
Temperature  
Mean Temperature 63 °F -  
Max Temperature 84 °F 69 °F 90 °F (1904)
Min Temperature 42 °F 34 °F 19 °F (1939)
Degree Days  
Heating Degree Days 2    
Growing Degree Days 13 (Base 50)    
Moisture  
Dew Point 32 °F    
Average Humidity 47    
Maximum Humidity 86    
Minimum Humidity 7    
Precipitation  
Precipitation 0.00 in - - ()
Sea Level Pressure  
Sea Level Pressure 29.91 in    
Wind  
Wind Speed 9 mph (WSW)    
Max Wind Speed 31 mph    
Max Gust Speed 45 mph    
Visibility 9 miles    
Events      
Averages and records for this station are not official NWS values.
T = Trace of Precipitation, MM = Missing Value Source: NWS Daily Summary

Daily Weather History Graph

Daily Weather History Graph

Search for Another Location

Airport or City:

Trip Planner

Search our weather history database for the weather conditions in past years. The results will help you decide how hot, cold, wet, or windy it might be!

Date:

Astronomy

Feb. 28, 2012 Rise Set
Actual Time 7:22 AM CST 6:51 PM CST
Civil Twilight 6:58 AM CST 7:15 PM CST
Nautical Twilight 6:29 AM CST 7:43 PM CST
Astronomical Twilight 6:01 AM CST 8:11 PM CST
Moon 10:59 AM CST (2/28) 12:19 AM CST (2/28)
Length of Visible Light 12h 17m
Length of Day
11h 28m
Waxing Crescent, 38% of the Moon is Illuminated
Feb 28
Waxing Crescent
Feb 29
First Quarter
Mar 8
Full
Mar 14
Last Quarter
Mar 22
New

Hourly Weather History & Observations

Time (CST) Temp. Windchill Dew Point Humidity Pressure Visibility Wind Dir Wind Speed Gust Speed Precip Events Conditions
12:15 AM 58.5 °F - 50.9 °F 76% 29.93 in 10.0 mi East 9.2 mph - N/A   Clear
12:35 AM 59.0 °F - 51.4 °F 76% 29.93 in 10.0 mi East 9.2 mph - N/A   Clear
12:55 AM 59.2 °F - 51.4 °F 75% 29.93 in 10.0 mi ESE 10.4 mph - N/A   Clear
1:15 AM 59.4 °F - 51.6 °F 76% 29.93 in 10.0 mi ESE 10.4 mph - N/A   Clear
1:35 AM 59.2 °F - 51.3 °F 75% 29.92 in 10.0 mi SE 6.9 mph - N/A   Clear
1:55 AM 57.7 °F - 50.0 °F 75% 29.93 in 10.0 mi WSW 8.1 mph - N/A   Clear
2:15 AM 52.7 °F - 44.4 °F 73% 29.92 in 10.0 mi West 4.6 mph - N/A   Clear
2:35 AM 51.1 °F - 43.3 °F 75% 29.92 in 10.0 mi Calm Calm - N/A   Clear
2:55 AM 50.7 °F - 43.0 °F 75% 29.91 in 10.0 mi SW 3.5 mph - N/A   Clear
3:15 AM 50.4 °F - 42.6 °F 75% 29.91 in 10.0 mi WSW 3.5 mph - N/A   Clear
3:35 AM 49.6 °F - 42.1 °F 75% 29.91 in 10.0 mi Calm Calm - N/A   Clear
3:55 AM 49.3 °F - 41.9 °F 76% 29.90 in 10.0 mi Calm Calm - N/A   Clear
4:15 AM 48.6 °F - 41.5 °F 77% 29.91 in 10.0 mi WSW 4.6 mph - N/A   Clear
4:35 AM 47.8 °F - 41.5 °F 79% 29.91 in 10.0 mi West 4.6 mph - N/A   Clear
4:55 AM 47.1 °F - 41.7 °F 81% 29.91 in 10.0 mi WSW 4.6 mph - N/A   Clear
5:15 AM 46.6 °F - 41.2 °F 81% 29.91 in 10.0 mi West 3.5 mph - N/A   Clear
5:35 AM 45.7 °F 43.4 °F 40.8 °F 83% 29.91 in 10.0 mi West 4.6 mph - N/A   Clear
5:55 AM 45.5 °F - 40.6 °F 83% 29.91 in 10.0 mi Calm Calm - N/A   Clear
6:15 AM 45.0 °F 43.5 °F 40.3 °F 84% 29.92 in 10.0 mi WNW 3.5 mph - N/A   Clear
6:35 AM 44.8 °F - 40.3 °F 84% 29.92 in 10.0 mi Calm Calm - N/A   Clear
6:55 AM 44.4 °F - 39.9 °F 84% 29.92 in 10.0 mi Calm Calm - N/A   Clear
7:15 AM 43.5 °F - 39.2 °F 85% 29.92 in 10.0 mi Calm Calm - N/A   Clear
7:35 AM 42.1 °F 37.7 °F 37.9 °F 85% 29.91 in 10.0 mi South 6.9 mph - N/A   Clear
7:55 AM 42.3 °F 39.4 °F 38.3 °F 86% 29.93 in 10.0 mi SW 4.6 mph - N/A   Clear
8:15 AM 42.4 °F 39.6 °F 38.1 °F 85% 29.93 in 10.0 mi SW 4.6 mph - N/A   Clear
8:35 AM 42.6 °F 39.0 °F 38.3 °F 85% 29.95 in 10.0 mi WSW 5.8 mph - N/A   Clear
8:55 AM 43.7 °F 41.1 °F 38.7 °F 82% 29.95 in 10.0 mi WSW 4.6 mph - N/A   Clear
9:15 AM 48.0 °F - 41.7 °F 79% 29.95 in 10.0 mi WSW 4.6 mph - N/A   Clear
9:35 AM 53.2 °F - 44.2 °F 72% 29.95 in 10.0 mi SW 5.8 mph - N/A   Clear
9:55 AM 56.8 °F - 46.2 °F 68% 29.95 in 10.0 mi SSW 4.6 mph - N/A   Clear
10:15 AM 59.9 °F - 47.3 °F 63% 29.95 in 10.0 mi South 4.6 mph - N/A   Clear
10:35 AM 62.2 °F - 47.1 °F 58% 29.95 in 10.0 mi SSW 3.5 mph - N/A   Clear
10:55 AM 64.6 °F - 46.2 °F 51% 29.93 in 10.0 mi SSW 4.6 mph - N/A   Clear
11:15 AM 67.3 °F - 45.1 °F 45% 29.93 in 10.0 mi SSW 4.6 mph - N/A   Clear
11:35 AM 70.2 °F - 43.7 °F 38% 29.93 in 10.0 mi South 4.6 mph - N/A   Clear
12:15 PM 75.0 °F - 38.8 °F 27% 29.91 in 10.0 mi SSW 3.5 mph - N/A   Clear
12:55 PM 78.6 °F - 36.3 °F 22% 29.88 in 10.0 mi SSE 5.8 mph - N/A   Clear
1:35 PM 82.8 °F - 29.3 °F 14% 29.86 in 10.0 mi WSW 23.0 mph 29.9 mph N/A   Clear
1:55 PM 83.1 °F - 28.9 °F 14% 29.86 in 7.0 mi WSW 25.3 mph 34.5 mph N/A   Clear
2:15 PM 83.3 °F - 28.2 °F 13% 29.84 in 7.0 mi SW 19.6 mph 29.9 mph N/A   Clear
3:15 PM 83.8 °F - 25.7 °F 12% 29.84 in 7.0 mi WSW 31.1 mph 44.9 mph N/A   Clear
3:35 PM 83.7 °F - 24.4 °F 11% 29.84 in 10.0 mi WSW 24.2 mph 38.0 mph N/A   Clear
3:55 PM 84.0 °F - 23.0 °F 11% 29.84 in 10.0 mi West 18.4 mph 32.2 mph N/A   Clear
4:15 PM 84.0 °F - 21.7 °F 10% 29.84 in 10.0 mi West 25.3 mph 28.8 mph N/A   Scattered Clouds
4:35 PM 83.3 °F - 19.6 °F 9% 29.85 in 2.5 mi West 25.3 mph 31.1 mph N/A   Haze
4:55 PM 82.4 °F - 17.1 °F 9% 29.85 in 3.0 mi West 19.6 mph 29.9 mph N/A   Haze
5:15 PM 82.2 °F - 14.7 °F 8% 29.86 in 4.0 mi West 23.0 mph 29.9 mph N/A   Haze
5:35 PM 81.7 °F - 10.9 °F 7% 29.86 in 4.0 mi West 26.5 mph 31.1 mph N/A   Haze
5:55 PM 80.6 °F - 10.2 °F 7% 29.86 in 7.0 mi West 23.0 mph 27.6 mph N/A   Overcast
6:55 PM 74.1 °F - 14.9 °F 11% 29.88 in 10.0 mi WNW 11.5 mph - N/A   Overcast
7:15 PM 72.5 °F - 14.0 °F 11% 29.88 in 10.0 mi WNW 12.7 mph - N/A   Overcast
7:35 PM 71.6 °F - 12.7 °F 10% 29.89 in 7.0 mi WNW 15.0 mph - N/A   Overcast
7:55 PM 70.3 °F - 12.0 °F 11% 29.90 in 4.0 mi West 16.1 mph - N/A   Haze
8:15 PM 68.7 °F - 12.6 °F 11% 29.91 in 4.0 mi West 15.0 mph - N/A   Haze
8:35 PM 67.1 °F - 12.4 °F 12% 29.92 in 4.0 mi WNW 11.5 mph - N/A   Haze
9:15 PM 61.9 °F - 12.2 °F 14% 29.93 in 4.0 mi West 12.7 mph - N/A   Haze
9:35 PM 60.3 °F - 12.0 °F 15% 29.94 in 4.0 mi West 15.0 mph - N/A   Haze
9:55 PM 61.3 °F - 11.5 °F 14% 29.95 in 5.0 mi West 15.0 mph - N/A   Haze
10:15 PM 61.2 °F - 11.1 °F 14% 29.97 in 5.0 mi WNW 12.7 mph - N/A   Haze
10:35 PM 58.3 °F - 11.1 °F 16% 29.99 in 7.0 mi NNW 9.2 mph - N/A   Clear
10:55 PM 58.3 °F - 11.1 °F 16% 30.02 in 10.0 mi ENE 3.5 mph - N/A   Clear
11:15 PM 58.3 °F - 14.4 °F 18% 30.02 in 10.0 mi NNW 10.4 mph - N/A   Clear
11:35 PM 57.9 °F - 16.0 °F 19% 30.03 in 10.0 mi NNW 11.5 mph - N/A   Clear